Location: Felsheim
(48.7267°N, 10.7386°E)
Time: 15:22:51
(UTC+00:00)

Daily predictions for brighter satellites

Satellite Brightness Start Highest point End
(mag) Time Altitude Azimuth Time Altitude Azimuth Time Altitude Azimuth
Cosmos 2026 Rocket 4.2 15:46:17 10° N 15:52:13 49° ENE 15:58:03 10° SSE
NOSS 2-2 (D) 4.3 15:47:51 10° NW 15:52:54 81° NE 16:00:04 10° SE
Cosmos 1634 Rocket 4.5 15:49:19 10° SSE 15:55:10 42° E 16:01:03 10° NNE
H-2A R/B 2.9 15:55:35 10° ESE 15:59:41 25° ENE 16:03:43 10° N
Cosmos 2369 3.7 15:53:54 10° NNW 15:59:41 83° ENE 16:05:25 10° SSE
Cosmos 1812 4.0 15:59:12 10° SE 16:02:14 23° E 16:05:18 10° NE
ATLAS CENTAUR R/B 3.8 16:01:23 10° NW 16:03:48 14° NNW 16:06:16 10° NNE
Cosmos 2221 3.6 16:00:32 10° SSW 16:04:40 47° WNW 16:08:53 10° N
Okean O Rocket 3.2 16:02:16 10° E 16:04:48 15° ENE 16:07:20 10° NNE
SL-16 R/B 3.1 16:00:02 10° NNW 16:04:52 28° NE 16:09:42 10° ESE
USA 308 3.4 16:00:49 10° WNW 16:04:54 43° N 16:08:59 10° E
MOS 1 Rocket 4.2 16:00:35 10° N 16:05:22 51° WNW 16:09:51 10° SW
CZ-2C R/B 2.8 16:01:34 10° SSE 16:06:24 81° ENE 16:11:10 10° NNW
Cosmos 2082 Rocket 2.5 16:03:12 10° S 16:08:41 51° ESE 16:14:09 10° NE
Sich 1 3.1 16:04:40 10° N 16:08:56 59° ENE 16:13:12 10° SSE
Cosmos 1500 Rocket 4.0 16:04:34 10° NNW 16:08:59 67° W 16:13:20 10° S
Cosmos 540 Rocket 3.4 16:04:33 10° SSW 16:09:38 75° ESE 16:14:46 10° NNE
ARGOS 4.2 16:06:49 10° ESE 16:10:52 22° ENE 16:14:56 10° N
FengYun 1-2 T 4.2 16:08:39 10° SSE 16:14:10 71° ENE 16:19:42 10° N
COSMOS 2455 2.9 16:09:15 10° SSW 16:15:13 70° ESE 16:21:15 10° NE
SMAP 3.1 16:12:20 10° SSE 16:16:53 58° ENE 16:21:28 10° N
NOAA 6 4.0 16:13:20 10° SSE 16:18:23 61° ENE 16:23:27 10° N
Cosmos 1805 Rocket 3.6 16:17:07 10° N 16:21:28 83° W 16:25:48 10° S
Cosmos 1933 3.4 16:17:51 10° S 16:21:54 86° WNW 16:25:57 10° N
Cosmos 1833 Rocket 3.1 16:16:25 10° SW 16:22:01 66° WNW 16:27:39 10° NNE
Cosmos 2278 3.7 16:16:25 10° NNW 16:22:10 73° ENE 16:27:50 10° SE
Cosmos 2333 Rocket 3.9 16:20:34 10° N 16:23:50 15° NNE 16:26:02 12° ENE
Cosmos 1602 4.0 16:20:30 10° NNW 16:24:21 71° W 16:28:13 10° S
CZ-4B DEB 4.2 16:22:10 10° SSE 16:27:33 58° ENE 16:32:56 10° N
USA 305 3.2 16:25:15 10° WNW 16:29:24 50° NNE 16:32:51 14° E
CZ-2C R/B 3.6 16:25:50 10° NE 16:30:00 24° E 16:34:09 10° SE
Cosmos 2219 Rocket 3.9 16:29:02 10° N 16:31:54 14° NNE 16:33:20 13° NE
CZ-4B R/B 3.4 16:29:06 10° S 16:32:59 59° WSW 16:36:42 10° NNW
Cosmos 1500 3.2 16:30:54 10° N 16:34:39 83° W 16:38:21 10° S
Meteor 1-14 Rocket 4.3 16:29:03 10° N 16:34:55 67° ENE 16:40:50 10° SSE
Cosmos 44 Rocket 3.2 16:31:27 10° NW 16:36:24 71° NE 16:41:10 10° SE
Meteor 2-16 Rocket 4.4 16:33:02 10° N 16:39:08 65° ENE 16:45:13 10° SSE
COSMOS 2406 3.7 16:35:58 10° SW 16:41:40 62° WNW 16:47:21 10° NNE
Cosmos 1814 Rocket 4.0 16:37:20 10° S 16:42:30 68° ESE 16:47:38 10° NNE
Cosmos 921 Rocket 3.7 16:40:01 10° SSE 16:43:44 31° E 16:45:57 20° NE
Cosmos 1570 Rocket 4.0 16:44:11 10° S 16:49:21 68° ESE 16:54:14 12° NNE
MOS 1-B Rocket 4.3 16:45:33 10° NNE 16:51:28 53° E 16:58:13 10° S
CZ-4B R/B 3.2 16:48:26 10° SE 16:53:38 53° ENE 16:58:48 10° N
Cosmos 2298 Rocket 4.0 16:49:44 10° NNW 16:55:02 61° ENE 17:00:18 10° SE
USA 267 3.3 16:50:26 18° ENE 16:55:32 74° SE 17:02:03 10° SW
CZ-2D R/B 3.1 16:52:07 10° SSE 16:55:56 76° ENE 16:59:45 10° N
MOS 1-B 4.3 16:52:44 10° SSE 16:58:30 76° ENE 17:04:18 10° NNW
Cosmos 1939 Rocket 3.9 16:54:42 10° S 16:58:40 48° W 17:02:37 10° NNW
ATLAS CENTAUR R/B 2.9 16:50:11 10° WSW 16:59:02 63° NW 17:01:31 23° NE
COSMO-SKYMED 1 3.1 16:59:10 22° NE 17:01:24 38° E 17:05:27 10° SSE
Cosmos 1633 Rocket 3.0 16:57:12 10° N 17:01:36 87° W 17:06:00 10° S
Cosmos 1151 Rocket 3.0 16:57:25 10° S 17:01:45 89° E 17:06:10 10° N
USA 306 2.9 16:57:33 10° WNW 17:01:48 65° NNE 17:03:51 28° E
Meteor 1-27 Rocket 4.4 16:57:20 10° SSE 17:02:01 30° E 17:04:01 24° NE
Cosmos 1666 2.9 16:59:38 10° NNW 17:03:22 70° W 17:07:03 10° S
Cosmos 1782 3.9 17:00:07 10° SSW 17:03:57 44° WNW 17:07:47 10° N
APEX 3.6 17:00:54 10° S 17:04:14 33° ESE 17:04:23 33° ESE
Landsat 5 4.4 17:05:03 26° ESE 17:05:03 26° ESE 17:08:01 10° SSE
Meteor 2-6 Rocket 4.2 16:59:10 10° S 17:04:48 67° E 17:10:19 10° NNE
Cosmos 2360 Rocket 2.8 17:00:48 10° NNW 17:06:00 35° NE 17:08:17 25° E
SJ-11-01 4.4 17:01:53 10° SE 17:06:29 52° ENE 17:11:05 10° N
ISS -0.7 17:04:47 10° W 17:06:54 16° SW 17:09:02 10° S
PAYLOAD B 4.3 17:02:57 10° SSE 17:08:34 87° WSW 17:14:12 10° NNW
Cosmos 1900 4.2 17:04:07 10° SSW 17:08:59 84° SE 17:11:53 25° NE
Cosmos 2237 4.4 17:03:50 10° NNW 17:09:22 47° NE 17:13:44 16° ESE
YAOGAN 1 4.1 17:11:21 20° NNE 17:11:21 20° NNE 17:13:09 10° N
Cosmos 1818 3.9 17:06:26 10° NW 17:11:54 68° WSW 17:17:18 10° SSE
CZ-2C R/B 3.8 17:15:20 10° SSW 17:17:06 12° S 17:18:51 10° SSE
Cosmos 2279 Rocket 4.1 17:11:38 10° SSW 17:17:51 80° W 17:24:05 10° N
ATLAS 5 CENTAUR R/B 1.8 17:11:52 10° NW 17:18:50 68° NE 17:19:39 46° ESE
Cosmos 1536 4.5 17:15:03 10° N 17:16:30 20° NNE 17:16:30 20° NNE
Meteor 2-15 4.3 17:14:07 10° S 17:20:10 71° E 17:26:14 10° NNE
Cosmos 2266 Rocket 4.0 17:14:18 10° N 17:20:43 71° ENE 17:27:07 10° SSE
ERBS 4.0 17:18:53 10° NW 17:20:46 20° N 17:20:46 20° N
USA 307 2.8 17:18:07 10° WNW 17:22:23 75° NNE 17:23:33 47° E
CZ-4C R/B 3.8 17:15:52 10° NW 17:22:54 52° WSW 17:31:02 10° SSE
SL-08 RB Rocket 3.7 17:20:39 10° SSE 17:25:09 54° ENE 17:29:38 10° N
Lacrosse 5 rocket 2.3 17:21:33 10° WNW 17:25:19 44° SW 17:28:56 12° SSE
SKYMED 3 4.5 17:23:34 30° NNE 17:25:38 67° ESE 17:29:57 10° S
NOSS 3-4 (A) 4.3 17:20:43 10° NW 17:26:51 37° NNE 17:28:51 31° ENE
NOSS 3-4 (C) 4.4 17:20:49 10° NW 17:26:57 37° NNE 17:28:56 31° ENE
Cosmos 2208 Rocket 4.2 17:23:19 10° SSW 17:28:43 75° WNW 17:32:51 18° NNE
Cosmos 1933 Rocket 3.4 17:24:24 10° N 17:28:45 67° ENE 17:33:03 10° SSE
Cosmos 2322 Rocket 2.1 17:23:11 10° NNW 17:28:55 72° ENE 17:34:36 10° SE
ATLAS 2AS CENTAUR R/B 3.8 17:22:57 10° NW 17:29:17 28° NNE 17:31:18 25° NE
COSMOS 2428 4.1 17:25:16 10° N 17:28:44 21° NNE 17:28:44 21° NNE
USA 234 3.5 17:23:30 10° SE 17:30:02 70° SW 17:36:35 10° WNW
Cosmos 2150 Rocket 4.1 17:25:25 10° NNW 17:30:37 77° WSW 17:35:51 10° SSE
Cosmos 1980 Rocket 4.4 17:26:59 10° NW 17:31:38 27° WSW 17:36:14 10° SSW
Cosmos 1328 Rocket 4.0 17:27:27 10° SSW 17:31:52 64° WNW 17:36:01 12° N
Cosmos 1470 Rocket 3.9 17:30:19 10° NNW 17:34:46 68° W 17:39:13 10° S
Cosmos 1544 3.1 17:31:16 10° NNW 17:34:54 78° W 17:38:31 10° S
Cosmos 1125 Rocket 3.7 17:31:35 10° NNW 17:36:50 74° WSW 17:42:05 10° SSE
Cosmos 1867 3.8 17:32:38 10° SSW 17:37:50 48° ESE 17:38:28 46° E
NOSS 3-3 (A) 4.4 17:32:57 10° S 17:38:07 37° ESE 17:38:22 37° ESE
NOSS 3-3 (C) 4.4 17:33:04 10° S 17:38:14 37° ESE 17:38:27 37° ESE
H-2A R/B 2.8 17:33:52 10° S 17:38:51 51° W 17:43:44 10° NNW
X-37B 2.6 17:36:26 10° SW 17:37:49 19° SSW 17:37:49 19° SSW
DEBRIS 4.4 17:37:05 10° S 17:38:35 23° SSE 17:38:35 23° SSE
Okean O Rocket 1.7 17:36:06 10° S 17:40:34 79° WSW 17:45:03 10° NNW
Meteor 1-10 Rocket 4.2 17:36:11 10° SSW 17:41:57 86° W 17:47:11 12° N
Meteor 1-11 Rocket 3.7 17:36:17 10° NNW 17:41:58 88° W 17:47:45 10° S
GEOS 3 Rocket 3.9 17:41:55 45° NE 17:42:12 45° NE 17:47:07 10° NNW
USA 32 3.9 17:38:42 10° S 17:43:53 68° E 17:46:22 31° NNE
ATLAS CENTAUR R/B 4.0 17:42:59 10° NNW 17:44:13 12° N 17:44:13 12° N
USA 308 2.7 17:40:49 10° WNW 17:45:05 85° SSW 17:45:21 78° SE
SL-16 R/B 2.6 17:43:49 10° NNW 17:49:27 65° WSW 17:55:02 10° SSE
SKYMED 2 3.7 17:47:48 35° N 17:49:35 72° WNW 17:53:54 10° SSW
ARGOS 3.4 17:45:17 10° S 17:50:40 68° WSW 17:56:04 10° NNW
Cosmos 2237 Rocket 4.2 17:47:51 10° N 17:49:04 13° N 17:49:04 13° N
Cosmos 2082 Rocket 3.6 17:47:55 10° WSW 17:53:00 33° NW 17:56:56 15° N
Cosmos 1241 Rocket 4.4 17:55:05 10° SSW 18:01:22 63° ESE 18:01:58 60° E
COSMOS 2455 4.3 17:56:22 10° W 18:01:41 31° NW 18:04:54 20° N
Feng Yun 1-1 Rocket 4.4 17:59:35 10° SSE 18:05:30 80° WSW 18:11:22 10° NNW
USA 305 3.6 18:05:11 10° WNW 18:08:52 52° WSW 18:08:52 52° WSW
Cosmos 2333 Rocket 2.8 18:03:51 10° NNW 18:08:05 42° N 18:08:05 42° N
CZ-2C R/B 3.2 18:06:50 17° N 18:10:37 52° WNW 18:15:37 10° SW
Cosmos 2219 Rocket 3.3 18:11:49 10° NNW 18:15:05 32° N 18:15:05 32° N
Aureole 3 Rocket 3.8 18:13:33 10° SSW 18:18:14 71° WNW 18:24:56 10° N
Nadezhda 2 Rocket 4.4 18:17:47 10° N 18:24:15 83° E 18:24:24 82° ESE
USA 267 3.6 18:37:47 52° N 18:38:25 54° NNW 18:44:45 10° W
Cosmos 2360 Rocket 3.0 18:44:45 10° NW 18:50:08 48° WSW 18:50:08 48° WSW
Cosmos 2322 Rocket 4.4 19:08:14 10° NW 19:12:22 21° W 19:16:29 10° SSW
NOSS 3-4 (A) 4.4 19:11:30 10° NW 19:16:19 50° NW 19:16:19 50° NW
NOSS 3-4 (C) 4.4 19:11:36 10° NW 19:16:24 50° NW 19:16:24 50° NW
ATLAS 2AS CENTAUR R/B 3.9 19:14:33 10° NW 19:18:44 34° NNW 19:18:44 34° NNW
